Location: Beadle
(51.4667°N, 109.0000°W)
Time: 08:34:29
(UTC+00:00)

YUBILEINY - Visible Passes

Search period start: 27 June 2022 00:00
Search period end: 07 July 2022 00:00
Orbit: 1479 x 1507 km, 82.5° (Epoch: 26 June)

Date Brightness Start Highest point End Pass type
(mag) Time Alt. Az. Time Alt. Az. Time Alt. Az.
27 Jun ? 09:08:18 10° N 09:13:19 16° NE 09:18:18 10° ENE visible
28 Jun ? 04:11:34 10° WNW 04:16:23 15° NW 04:21:12 10° N visible
28 Jun ? 08:20:53 10° NNE 08:21:58 10° NNE 08:23:03 10° NE visible
29 Jun ? 09:25:27 10° N 09:31:55 22° NE 09:38:18 10° E visible
30 Jun ? 04:32:45 10° NW 04:35:12 11° NNW 04:37:41 10° NNW visible
30 Jun ? 08:36:37 10° N 08:40:51 14° NE 08:45:04 10° ENE visible
01 Jul ? 09:42:48 10° N 09:50:17 29° ENE 09:57:40 10° ESE visible
02 Jul ? 08:53:38 10° N 08:59:32 19° NE 09:05:22 10° E visible
03 Jul ? 08:05:06 10° NNE 08:08:22 12° NE 08:11:37 10° ENE visible
03 Jul ? 10:00:15 10° N 10:08:27 40° ENE 10:16:33 10° SE visible
04 Jul ? 09:10:55 10° N 09:18:00 26° NE 09:25:00 10° ESE visible
05 Jul ? 08:21:52 10° N 08:27:07 17° NE 08:32:20 10° E visible
05 Jul ? 10:17:47 10° N 10:26:26 55° ENE 10:34:58 10° SSE visible
06 Jul ? 07:33:57 10° NNE 07:35:49 11° NNE 07:37:42 10° NE visible
06 Jul ? 09:28:19 10° N 09:36:15 35° ENE 09:44:04 10° SE visible
